Location: Bonningues
(50.7927°N, 2.0150°E)
Time: 21:19:13
(UTC+00:00)

SAR-Lupe-2 - Pass Details

Date: 08 August 2020
Orbit: 482 x 484 km, 98.1° (Epoch: 24 August)

Event Time Altitude Azimuth Distance (km) Brightness Sun altitude
Rises 21:34:34 0° 14° (NNE) 2,561 7.8 -16.4°
Reaches altitude 10° 21:36:38 10° 15° (NNE) 1,676 6.8 -16.6°
Maximum altitude 21:40:15 87° 99° (E) 491 3.4 -16.9°
Enters shadow 21:41:56 30° 193° (SSW) 894 4.5 -17.1°
